Flag for Germany Weather past 2 weeks in Esslingen, Baden-Württemberg, Germany

Now
59 °F

Sunny.


Feels Like: 59 °F
Forecast: 59 / 84 °F
Wind: 1 mph from North

Location: Stuttgart-Echterdingen

Current Time: Aug 1, 2015 at 7:46:56 AM

Latest Report: Aug 1, 2015 at 7:20 AM


Visibility: 10 mi

Pressure: 29.92 "Hg

Humidity: 72%

Dew point: 50 °F

Location of EsslingenLocation

Historic Weather in Esslingen — Graph

°F

Esslingen temperature yesterday

Maximum temperature yesterday: 73 °F (at 3:50 PM)
Minimum temperature yesterday: 46 °F (at 5:50 AM)
Average temperature yesterday: 62 °F

Past Weeks' High & Low Weather Summary

 TemperatureHumidityPressure
High95 °F (Jul 22, 2:20 PM)94% (Jul 23, 1:50 AM)30.12 "Hg (Jul 23, 1:50 AM)
Low46 °F (Jul 31, 5:50 AM)26% (Jul 17, 1:50 PM)29.71 "Hg (Jul 24, 7:20 PM)
Average69 °F62%29.95 "Hg
* Reported Jul 17 6:20 AM — Aug 1 6:50 AM, Esslingen, Weather by CustomWeather, © 2015

Note: Actual official high and low records may vary slightly from our data, if they occured in-between our weather recording intervals... More about our weather records

Advertising

Esslingen weather history for previous 24 hours

 ConditionsComfort  
Time TempWeatherWind HumidityBarometerVisibility
6:50 AM
Sat, Aug 1
59 °FClear.2 mph63%29.92 "Hg10 mi
6:20 AM57 °FClear.1 mph63%29.92 "Hg10 mi
5:50 AM57 °FClear.3 mph67%29.92 "Hg10 mi
5:20 AM57 °FClear.1 mph63%29.92 "Hg10 mi
4:50 AM57 °FClear.1 mph63%29.92 "Hg10 mi
4:20 AM59 °FClear.1 mph59%29.92 "Hg10 mi
3:50 AM59 °FClear.3 mph59%29.92 "Hg10 mi
3:20 AM61 °FPassing clouds.3 mph55%29.92 "HgN/A
2:50 AM61 °FClear.2 mph55%29.92 "Hg10 mi
2:20 AM61 °FPassing clouds.5 mph55%29.95 "HgN/A
1:50 AM61 °FPassing clouds.3 mph55%29.95 "HgN/A
1:20 AM63 °FClear.2 mph49%29.95 "Hg10 mi
12:50 AM63 °FClear.5 mph49%29.95 "Hg10 mi
12:20 AM63 °FClear.5 mph49%29.95 "Hg10 mi
11:50 PM
Fri, Jul 31
63 °FClear.6 mph49%29.95 "Hg10 mi
11:20 PM64 °FClear.3 mph46%29.95 "Hg10 mi
10:50 PM64 °FClear.2 mph46%29.95 "Hg10 mi
10:20 PM64 °FClear.2 mph46%29.95 "Hg10 mi
9:50 PM66 °FSunny.3 mph43%29.95 "Hg10 mi
9:20 PM68 °FSunny.7 mph38%29.95 "Hg10 mi
8:50 PM70 °FSunny.7 mph35%29.95 "Hg10 mi
8:20 PM70 °FSunny.8 mph35%29.95 "Hg10 mi
7:50 PM72 °FSunny.8 mph33%29.95 "Hg10 mi
7:20 PM73 °FPassing clouds.9 mph31%29.95 "HgN/A
6:50 PM73 °FSunny.7 mph31%29.95 "Hg10 mi
6:20 PM73 °FPassing clouds.10 mph31%29.95 "HgN/A
5:50 PM73 °FPassing clouds.6 mph31%29.98 "HgN/A
5:20 PM73 °FPassing clouds.8 mph31%29.98 "HgN/A
4:50 PM73 °FSunny.6 mph31%29.98 "Hg10 mi
4:20 PM73 °FPassing clouds.6 mph29%29.98 "HgN/A
3:50 PM73 °FSunny.8 mph31%29.98 "Hg10 mi
3:20 PM72 °FPassing clouds.9 mph31%30.01 "HgN/A
2:50 PM72 °FSunny.7 mph31%30.01 "Hg10 mi
2:20 PM70 °FPassing clouds.6 mph35%30.04 "HgN/A
1:50 PM70 °FPassing clouds.9 mph35%30.04 "HgN/A
1:20 PM70 °FSunny.5 mph35%30.04 "Hg10 mi
12:50 PM68 °FSunny.6 mph43%30.07 "Hg10 mi
12:20 PM68 °FScattered clouds.6 mph43%30.07 "HgN/A
11:50 AM66 °FScattered clouds.8 mph46%30.07 "HgN/A
11:20 AM64 °FPassing clouds.5 mph52%30.07 "HgN/A
10:50 AM64 °FPassing clouds.7 mph56%30.09 "HgN/A
10:20 AM63 °FPassing clouds.6 mph56%30.09 "HgN/A
9:50 AM61 °FPassing clouds.3 mph59%30.09 "HgN/A
9:20 AM59 °FPassing clouds.5 mph63%30.09 "HgN/A
8:50 AM57 °FPassing clouds.5 mph72%30.09 "HgN/A
8:20 AM55 °FSunny.2 mph77%30.09 "Hg10 mi
7:50 AM54 °FSunny.1 mph77%30.09 "Hg10 mi
7:20 AM52 °FSunny.1 mph82%30.09 "Hg10 mi
Weather by CustomWeather, © 2015

See weather overviewHow to use our weather pages